ZKZGO NZAR-NZNP

Flight info

Callsign ZKZGO
Flight time 0h 26m
Altitude 26000
Route REKIS2R LAKES Q151 KARRL Y832 EKALI Y244 DOBBO PEXUR3A
Aircraft C25C/M-SDE2E3FGHRWXY/LB1

Departure

Time 2026-04-12 05:04
Airport Ardmore Airport (NZAR)

Arrival

Time 2026-04-12 05:31
Airport New Plymouth Airport (NZNP)
Time Latitude Longitude Altitude Speed Heading
2026-04-12 04:52 -37.03142 174.97931 123 ft 0 kts 314°
2026-04-12 04:59 -37.02706 174.97930 121 ft 0 kts 226°
2026-04-12 05:01 -37.02706 174.97931 121 ft 0 kts 226°
2026-04-12 05:02 -37.02706 174.97932 121 ft 0 kts 226°
2026-04-12 05:03 -37.02763 174.97858 121 ft 49 kts 226°
2026-04-12 05:04 -37.03244 174.97241 325 ft 131 kts 227°
2026-04-12 05:04 -37.03964 174.96404 735 ft 151 kts 200°
2026-04-12 05:04 -37.04914 174.95709 1205 ft 170 kts 202°
2026-04-12 05:04 -37.05926 174.94787 1770 ft 186 kts 202°
2026-04-12 05:05 -37.07031 174.93808 2352 ft 202 kts 202°
2026-04-12 05:05 -37.08301 174.93186 2934 ft 192 kts 169°
2026-04-12 05:05 -37.09624 174.93310 3605 ft 192 kts 157°
2026-04-12 05:05 -37.10982 174.93599 4332 ft 205 kts 158°
2026-04-12 05:06 -37.12489 174.93948 5041 ft 236 kts 160°
2026-04-12 05:06 -37.14153 174.94392 5752 ft 258 kts 155°
2026-04-12 05:06 -37.15963 174.95015 6452 ft 282 kts 158°
2026-04-12 05:06 -37.17928 174.95639 7146 ft 299 kts 158°
2026-04-12 05:07 -37.19952 174.96295 8012 ft 292 kts 159°
2026-04-12 05:07 -37.21859 174.96934 8879 ft 283 kts 159°
2026-04-12 05:07 -37.23741 174.97555 9727 ft 276 kts 159°
2026-04-12 05:07 -37.25589 174.98164 10545 ft 278 kts 160°
2026-04-12 05:08 -37.27491 174.98803 11386 ft 288 kts 159°
2026-04-12 05:08 -37.29459 174.99455 12248 ft 296 kts 160°
2026-04-12 05:08 -37.31428 175.00262 13126 ft 298 kts 149°
2026-04-12 05:08 -37.33252 175.01452 13935 ft 303 kts 148°
2026-04-12 05:09 -37.35149 175.02659 14755 ft 308 kts 149°
2026-04-12 05:09 -37.37081 175.03861 15606 ft 311 kts 149°
2026-04-12 05:09 -37.39027 175.05087 16473 ft 313 kts 149°
2026-04-12 05:09 -37.40977 175.06318 17376 ft 314 kts 149°
2026-04-12 05:10 -37.42997 175.07386 18196 ft 320 kts 163°
2026-04-12 05:10 -37.45243 175.07526 18987 ft 328 kts 182°
2026-04-12 05:10 -37.47436 175.06653 19801 ft 335 kts 204°
2026-04-12 05:10 -37.49325 175.04916 20652 ft 338 kts 218°
2026-04-12 05:11 -37.51127 175.03010 21519 ft 338 kts 219°
2026-04-12 05:11 -37.52965 175.01025 22048 ft 359 kts 219°
2026-04-12 05:11 -37.54906 174.98954 22577 ft 379 kts 218°
2026-04-12 05:11 -37.57009 174.96755 23112 ft 396 kts 217°
2026-04-12 05:12 -37.59449 174.95071 23559 ft 407 kts 200°
2026-04-12 05:12 -37.62081 174.93717 24009 ft 419 kts 200°
2026-04-12 05:12 -37.64813 174.92315 24478 ft 428 kts 200°
2026-04-12 05:12 -37.67595 174.90880 24960 ft 436 kts 201°
2026-04-12 05:13 -37.70426 174.89400 25335 ft 445 kts 201°
2026-04-12 05:13 -37.73334 174.87882 25411 ft 460 kts 201°
2026-04-12 05:13 -37.76319 174.86331 25414 ft 472 kts 201°
2026-04-12 05:13 -37.79318 174.84765 25424 ft 456 kts 201°
2026-04-12 05:14 -37.82186 174.83278 25418 ft 437 kts 201°
2026-04-12 05:14 -37.84949 174.81831 25412 ft 423 kts 201°
2026-04-12 05:14 -37.87563 174.80252 25392 ft 412 kts 213°
2026-04-12 05:14 -37.89787 174.78031 25405 ft 403 kts 218°
2026-04-12 05:15 -37.91999 174.75815 25403 ft 409 kts 218°
2026-04-12 05:15 -37.94236 174.73539 25407 ft 415 kts 219°
2026-04-12 05:15 -37.96497 174.71225 25402 ft 420 kts 219°
2026-04-12 05:15 -37.98785 174.68901 25414 ft 424 kts 219°
2026-04-12 05:16 -38.01094 174.66556 25421 ft 427 kts 219°
2026-04-12 05:16 -38.03418 174.64193 25421 ft 430 kts 219°
2026-04-12 05:16 -38.05720 174.61840 25423 ft 431 kts 219°
2026-04-12 05:16 -38.08060 174.59443 25425 ft 433 kts 219°
2026-04-12 05:17 -38.10416 174.57053 25427 ft 433 kts 219°
2026-04-12 05:17 -38.12795 174.54634 24930 ft 443 kts 219°
2026-04-12 05:17 -38.15189 174.52170 24358 ft 442 kts 219°
2026-04-12 05:17 -38.17573 174.49721 23808 ft 439 kts 219°
2026-04-12 05:18 -38.19147 174.48115 23437 ft 438 kts 219°
2026-04-12 05:18 -38.21515 174.45693 22874 ft 435 kts 219°
2026-04-12 05:18 -38.23892 174.43254 22209 ft 433 kts 219°
2026-04-12 05:18 -38.26201 174.40878 21584 ft 431 kts 219°
2026-04-12 05:19 -38.28559 174.38454 20951 ft 429 kts 219°
2026-04-12 05:19 -38.30849 174.36102 20341 ft 428 kts 219°
2026-04-12 05:19 -38.33163 174.33731 19739 ft 424 kts 218°
2026-04-12 05:19 -38.35625 174.31961 19060 ft 394 kts 200°
2026-04-12 05:20 -38.38190 174.31099 18356 ft 370 kts 192°
2026-04-12 05:20 -38.40649 174.30457 17664 ft 352 kts 191°
2026-04-12 05:20 -38.43011 174.29901 16880 ft 338 kts 191°
2026-04-12 05:20 -38.45279 174.29322 16047 ft 328 kts 192°
2026-04-12 05:21 -38.47493 174.28741 15181 ft 322 kts 191°
2026-04-12 05:21 -38.49675 174.28169 14340 ft 317 kts 191°
2026-04-12 05:21 -38.51825 174.27675 13521 ft 311 kts 186°
2026-04-12 05:21 -38.53957 174.27325 12671 ft 307 kts 189°
2026-04-12 05:22 -38.56046 174.26870 11789 ft 303 kts 189°
2026-04-12 05:22 -38.58115 174.26463 10933 ft 299 kts 188°
2026-04-12 05:22 -38.60160 174.26088 10094 ft 295 kts 187°
2026-04-12 05:22 -38.62180 174.25715 9287 ft 292 kts 188°
2026-04-12 05:23 -38.64178 174.25336 8405 ft 288 kts 188°
2026-04-12 05:23 -38.66147 174.24964 7587 ft 284 kts 188°
2026-04-12 05:23 -38.68026 174.24602 7428 ft 258 kts 188°
2026-04-12 05:23 -38.69711 174.24287 7418 ft 232 kts 188°
2026-04-12 05:24 -38.71239 174.23998 7396 ft 212 kts 188°
2026-04-12 05:24 -38.72661 174.23730 7269 ft 201 kts 186°
2026-04-12 05:24 -38.74030 174.23475 7092 ft 202 kts 188°
2026-04-12 05:24 -38.75465 174.23214 6781 ft 214 kts 185°
2026-04-12 05:25 -38.76926 174.23590 6464 ft 221 kts 154°
2026-04-12 05:25 -38.78346 174.24407 6160 ft 226 kts 155°
2026-04-12 05:25 -38.79796 174.25244 5864 ft 231 kts 155°
2026-04-12 05:25 -38.81287 174.26094 5558 ft 237 kts 155°
2026-04-12 05:26 -38.82804 174.26962 5246 ft 241 kts 155°
2026-04-12 05:26 -38.84323 174.27830 4934 ft 243 kts 155°
2026-04-12 05:26 -38.85878 174.28715 4628 ft 245 kts 154°
2026-04-12 05:26 -38.87463 174.29615 4322 ft 246 kts 154°
2026-04-12 05:27 -38.89031 174.30515 4008 ft 247 kts 154°
2026-04-12 05:27 -38.90599 174.31414 3685 ft 247 kts 155°
2026-04-12 05:27 -38.92106 174.32290 3451 ft 243 kts 157°
2026-04-12 05:27 -38.93726 174.32643 3325 ft 237 kts 186°
2026-04-12 05:28 -38.95255 174.31983 3196 ft 232 kts 212°
2026-04-12 05:28 -38.96348 174.30490 3048 ft 230 kts 237°
2026-04-12 05:28 -38.97017 174.28658 2650 ft 221 kts 243°
2026-04-12 05:28 -38.97638 174.26825 2004 ft 223 kts 244°
2026-04-12 05:29 -38.98249 174.25030 1431 ft 201 kts 244°
2026-04-12 05:29 -38.98771 174.23503 799 ft 194 kts 247°
2026-04-12 05:29 -38.99285 174.21952 594 ft 165 kts 246°
2026-04-12 05:29 -38.99744 174.20745 381 ft 135 kts 245°
2026-04-12 05:30 -39.00097 174.19737 329 ft 114 kts 249°
2026-04-12 05:30 -39.00381 174.18919 214 ft 89 kts 245°
2026-04-12 05:30 -39.00616 174.18236 97 ft 76 kts 243°
2026-04-12 05:30 -39.00813 174.17693 88 ft 53 kts 250°
2026-04-12 05:31 -39.00862 174.17534 93 ft 10 kts 248°
2026-04-12 05:31 -39.00869 174.17511 90 ft 0 kts 245°
2026-04-12 05:31 -39.00879 174.17505 93 ft 6 kts 205°
2026-04-12 05:31 -39.00874 174.17503 91 ft 6 kts 62°
2026-04-12 05:32 -39.00824 174.17645 88 ft 24 kts 66°
2026-04-12 05:32 -39.00782 174.17780 88 ft 0 kts 119°
2026-04-12 05:32 -39.00802 174.17802 91 ft 9 kts 146°
2026-04-12 05:32 -39.00881 174.17847 90 ft 13 kts 155°
2026-04-12 05:33 -39.00915 174.17918 91 ft 2 kts 128°
2026-04-12 05:33 -39.00927 174.17913 90 ft 0 kts 263°
2026-04-12 05:33 -39.00927 174.17909 90 ft 0 kts 273°